User: anonymous   Login
Location: Corralito
(14.1667°N, 87.1833°W)
Time: 17:30:24
(UTC+00:00)
Language:

Cosmos 967 Rocket - Orbit

View from above orbital plane
View from above orbital plane
View from above satellite
View from above satellite

Ground track
Ground track

The orbit data is extracted from the following two-line orbital elements,

1 10513U 77116B   20227.48096738 -.00000088 +00000-0 -63319-5 0  9995
2 10513 065.8334 137.9202 0030099 208.8000 323.8246 13.78550902146823
Epoch (UTC): 14 August 2020 11:32:35
Eccentricity: 0.0030099
inclination: 65.8334°
perigee height: 947 km
apogee height: 991 km
right ascension of ascending node: 137.9202°
argument of perigee: 208.8000°
revolutions per day: 13.78550902
mean anomaly at epoch: 323.8246°
orbit number at epoch: 14682

The dashed part of the orbit path shows where the satellite is in the earth's shadow,  

DLR